Tracking 25620 objects as of 18-May-2022
HD Live streaming from Space Station
objects crossing your sky now

COSMOS 2251 DEB

Track COSMOS 2251 DEB now!
10-day predictions


NORAD ID: 34035
Int'l Code: 1993-036HW
Perigee: 743.0 km
Apogee: 825.5 km
Inclination: 74.1 °
Period: 100.4 minutes
Semi major axis: 7155 km
RCS: 0.0156 m2 (small)
Launch date: June 16, 1993
Source: Commonwealth of Independent States (former USSR) (CIS)
Launch site: PLESETSK MISSILE AND SPACE COMPLEX (PKMTR)

Note: This is SATELLITE DEBRIS
aabbcc
Your satellite tracking list
Your tracking list is empty




NASA's NSSDC Master Catalog

Two Line Element Set (TLE):
1 34035U 93036HW  22137.32481917  .00003280  00000-0  11529-2 0  9999
2 34035  74.0728 242.4885 0057668 223.0030 205.7227 14.34391244691567
Source of the keplerian elements: AFSPC